Location: Great Falls
(47.5000°N, 111.3000°W)
Time: 07:04:25
(UTC-06:00)

ISS - Pass Details

Date: 28 April 2025
Orbit: 416 x 420 km, 51.6° (Epoch: 15 May)

Event Time Altitude Azimuth Distance (km) Brightness Sun altitude
Exits shadow 04:17:24 37° 273° (W) 670 -3.1 -16.9°
Maximum altitude 04:18:31 64° 341° (NNW) 468 -3.5 -16.8°
Drops below altitude 10° 04:21:52 10° 64° (ENE) 1,498 0.2 -16.4°
Sets 04:23:59 0° 67° (ENE) 2,363 1.4 -16.1°
